Alexandria, Egypt

2:02 AM EET on December 18, 2017 (GMT +0200)
Alexandria

Weather History for HEAX - September, 2014

Change the Weather History Date:

Monday, September 15, 2014

  Actual Average Record
Temperature  
Mean Temperature 82 °F -  
Max Temperature 88 °F 80 °F 95 °F (1998)
Min Temperature 75 °F 67 °F 63 °F (2012)
Cooling Degree Days 16    
Growing Degree Days 32 (Base 50)    
Moisture  
Dew Point 69 °F    
Average Humidity 66    
Maximum Humidity 78    
Minimum Humidity 45    
Precipitation  
Precipitation 0.00 in 0.01 in - ()
Sea Level Pressure  
Sea Level Pressure 29.89 in    
Wind  
Wind Speed 6 mph ()    
Max Wind Speed 9 mph    
Max Gust Speed -    
Visibility 6.1 miles    
Events      
Averages and records for this station are not official NWS values.
T = Trace of Precipitation, MM = Missing Value Source: Averaged Metar Reports

Daily Weather History Graph

Daily Weather History Graph

Search for Another Location

Airport or City:

Trip Planner

Search our weather history database for the weather conditions in past years. The results will help you decide how hot, cold, wet, or windy it might be!

Date:

Astronomy

Sep. 15, 2014 Rise Set
Actual Time 6:44 AM EEST 7:06 PM EEST
Civil Twilight 6:19 AM EEST 7:30 PM EEST
Nautical Twilight 5:51 AM EEST 7:58 PM EEST
Astronomical Twilight 5:22 AM EEST 8:27 PM EEST
Moon 11:54 PM EEST (9/15) 1:04 PM EEST (9/15)
Length of Visible Light 13h 10m
Length of Day
12h 22m
Waning Gibbous, 57% of the Moon is Illuminated
Sep 15
Waning Gibbous
Sep 16
Last Quarter
Sep 24
New
Oct 1
First Quarter
Oct 8
Full

Hourly Weather History & Observations

Time (EEST) Temp. Heat Index Dew Point Humidity Pressure Visibility Wind Dir Wind Speed Gust Speed Precip Events Conditions
12:00 AM 80 °F - 70 °F 65% 29.92 in 6 mi NW 9.2 mph - -  
12:00 AM 78.8 °F - 69.8 °F 74% 29.92 in - NW 9.2 mph - N/A   Clear
1:00 AM 78.8 °F - 69.8 °F 74% 29.89 in - NNW 6.9 mph - N/A   Clear
2:00 AM 78.8 °F - 69.8 °F 74% 29.89 in - NW 6.9 mph - N/A   Clear
3:00 AM 78 °F - 69 °F 67% 29.89 in 6 mi NW 4.6 mph - -  
3:00 AM 77.0 °F - 69.8 °F 78% 29.89 in - NW 4.6 mph - N/A   Clear
4:00 AM 77.0 °F - 69.8 °F 78% 29.86 in - NW 4.6 mph - N/A   Clear
5:00 AM 77.0 °F - 68.0 °F 74% 29.86 in - NNW 5.8 mph - N/A   Clear
6:00 AM 77 °F - 68 °F 68% 29.88 in 6 mi NW 4.6 mph - -  
6:00 AM 77.0 °F - 68.0 °F 74% 29.86 in - NW 4.6 mph - N/A   Clear
7:00 AM 77.0 °F - 68.0 °F 74% 29.86 in - South 2.3 mph - N/A   Clear
8:00 AM 77.0 °F - 68.0 °F 74% 29.89 in - South 2.3 mph - N/A   Clear
9:00 AM 78 °F - 71 °F 72% 29.90 in 6 mi SSW 3.5 mph - -  
9:00 AM 78.8 °F - 69.8 °F 74% 29.89 in - SSW 3.5 mph - N/A   Clear
10:00 AM 80.6 °F 83.9 °F 69.8 °F 70% 29.89 in 6.2 mi West 4.6 mph - N/A   Scattered Clouds
11:00 AM 82.4 °F 86.3 °F 69.8 °F 66% 29.92 in 6.2 mi WNW 3.5 mph - N/A   Scattered Clouds
12:00 PM 86 °F - 68 °F 46% 29.92 in 6 mi NW 8.1 mph - -   Partly Cloudy
12:00 PM 86.0 °F 89.4 °F 68.0 °F 55% 29.92 in 6.2 mi NW 8.1 mph - N/A   Scattered Clouds
1:00 PM 87.8 °F 92.6 °F 69.8 °F 55% 29.92 in 6.2 mi NW 6.9 mph - N/A   Scattered Clouds
2:00 PM 87.8 °F 92.6 °F 69.8 °F 55% 29.89 in 6.2 mi WNW 8.1 mph - N/A   Scattered Clouds
3:00 PM 86 °F - 68 °F 45% 29.91 in 6 mi WNW 8.1 mph - -  
3:00 PM 86.0 °F 89.4 °F 68.0 °F 55% 29.89 in 6.2 mi WNW 8.1 mph - N/A   Partly Cloudy
4:00 PM 86.0 °F 90.4 °F 69.8 °F 58% 29.89 in - West 9.2 mph - N/A   Clear
5:00 PM 82.4 °F 86.3 °F 69.8 °F 66% 29.89 in - West 8.1 mph - N/A   Clear
6:00 PM 83 °F - 69 °F 55% 29.89 in 6 mi WNW 9.2 mph - -  
6:00 PM 82.4 °F 86.3 °F 69.8 °F 66% 29.89 in - WNW 9.2 mph - N/A   Clear
7:00 PM 80.6 °F 83.9 °F 69.8 °F 70% 29.86 in - NW 6.9 mph - N/A   Clear
8:00 PM 80.6 °F 83.9 °F 69.8 °F 70% 29.86 in - NW 5.8 mph - N/A   Clear
9:00 PM 81 °F - 68 °F 57% 29.88 in 6 mi North 4.6 mph - -  
9:00 PM 80.6 °F 83.2 °F 68.0 °F 65% 29.86 in - North 4.6 mph - N/A   Clear
10:00 PM 80.6 °F 83.9 °F 69.8 °F 70% 29.89 in - North 2.3 mph - N/A   Clear
11:00 PM 78.8 °F - 69.8 °F 74% 29.89 in - Calm Calm - N/A   Clear